Regional Weather Roundup
Issued by NWS Green Bay, WI

Home | Current Version | Previous Version | Graphics & Text | Print | Product List | Glossary Off
Versions: 1 2 3 4 5 6 7 8 9 10 11 12 13 14 15 16 17 18 19 20 21 22 23 24 25 26 27 28 29 30 31 32 33 34 35 36 37 38 39 40 41 42 43 44 45 46 47 48 49 50

155
ASUS43 KGRB 060000
RWRGRB

NORTH-CENTRAL AND NORTHEAST WISCONSIN REGIONAL WEATHER ROUNDUP
NATIONAL WEATHER SERVICE GREEN BAY WI
700 PM CDT THU MAY 05 2016

WIZ005-009-010>012-018-019-060100-
NORTH CENTRAL WISCONSIN

CITY           SKY/WX    TMP DP  RH WIND       PRES   REMARKS
IRONWOOD         N/A     68  39  34 SW12G18   29.84R
MANITOWISH WTR NOT AVBL
ARBOR VITAE    NOT AVBL
EAGLE RIVER    NOT AVBL
LAND O LAKES   NOT AVBL
RHINELANDER    SUNNY     66  37  34 W10       29.92R
PHILLIPS       NOT AVBL
ANTIGO         NOT AVBL
TOMAHAWK       NOT AVBL
MERRILL        NOT AVBL
$$

WIZ013-073-060100-
NORTHEAST WISCONSIN

CITY           SKY/WX    TMP DP  RH WIND       PRES   REMARKS
IRON MOUNTAIN  CLEAR     68  27  21 W6        29.87S
MARINETTE      CLEAR     57  37  47 E9        29.92S
$$

WIZ017-030-035>037-045-060100-
CENTRAL WISCONSIN

CITY           SKY/WX    TMP DP  RH WIND       PRES   REMARKS
MEDFORD        NOT AVBL
WAUSAU         SUNNY     66  37  34 W12       29.92S
MOSINEE        SUNNY     63  36  36 W9        29.95F
MARSHFIELD     MOSUNNY   65  37  35 W5        29.94S
WISC RAPIDS    SUNNY     67  30  25 W6        29.95S
STEVENS POINT  NOT AVBL
WAUPACA        NOT AVBL
SHAWANO        NOT AVBL
CLINTONVILLE   NOT AVBL
WAUTOMA        NOT AVBL
$$

WIZ038-039-048-051-060100-
FOX VALLEY

CITY           SKY/WX    TMP DP  RH WIND       PRES   REMARKS
NWS GREEN BAY  CLEAR     64  41  42 S7        29.92F
APPLETON       PTCLDY    61  36  39 S8        29.92F
OSHKOSH        CLEAR     61  40  45 SE6       29.94F
FOND DU LAC    CLEAR     63  40  42 NE5       29.94F
$$

WIZ022-050-052-060100-
EAST CENTRAL WISCONSIN

CITY           SKY/WX    TMP DP  RH WIND       PRES   REMARKS
EPHRAIM        NOT AVBL
STURGEON BAY   CLOUDY    54  37  54 SE9       29.95F
MANITOWOC      NOT AVBL
SHEBOYGAN      CLEAR     54  39  57 SE5       29.96S
$$

LMZ563-521-522-541>543-060100-
LAKESHORE

STATION/POSITION TIME  TEMP    WIND        PRES    VSBY  WAVE
                       AIR SEA DIR/SP/G                  HT/PER
                 (UTC) (F)     (DEG/KT/KT) (MB)    (MI)  (FT/S)
SHEBOYGAN LKSHOR 2300   45     180/  4/  5 1015.5F
KEWAUNEE LKSHORE 2300                      1013.8F
ALGOMA MARINA    2315          210/ 10/ 11   N/A
NORTHPORT PIER   2300   51     170/  6/  8 1013.5F
N MID LAKE BUOY  2250   41 39  190/  8/  8 1013.9F         0
CHAMBERS ISLAND  2300   58     150/  6/ 10 1013.2F
MENOMINEE LKSHOR 2300                      1012.1F
$$




USA.gov is the U.S. government's official web portal to all federal, state and local government web resources and services.